Amendola, Italy

5:38 PM CEST on May 28, 2017 (GMT +0200)
Amendola Mil

Weather History for LIBA - June, 2014

Change the Weather History Date:

Tuesday, June 17, 2014

  Actual Average Record
Temperature  
Mean Temperature 70 °F -  
Max Temperature 77 °F 86 °F 95 °F (2002)
Min Temperature 62 °F 62 °F 50 °F (2016)
Cooling Degree Days 4    
Growing Degree Days 20 (Base 50)    
Moisture  
Dew Point 65 °F    
Average Humidity 81    
Maximum Humidity 88    
Minimum Humidity 72    
Precipitation  
Precipitation 1.26 in 0.04 in - ()
Sea Level Pressure  
Sea Level Pressure 29.85 in    
Wind  
Wind Speed 3 mph ()    
Max Wind Speed 9 mph    
Max Gust Speed 21 mph    
Visibility 4.6 miles    
Events Rain , Thunderstorm    
Averages and records for this station are not official NWS values.
T = Trace of Precipitation, MM = Missing Value Source: Averaged Metar Reports

Daily Weather History Graph

Daily Weather History Graph

Search for Another Location

Airport or City:

Trip Planner

Search our weather history database for the weather conditions in past years. The results will help you decide how hot, cold, wet, or windy it might be!

Date:

Astronomy

Jun. 17, 2014 Rise Set
Actual Time 5:22 AM CEST 8:33 PM CEST
Civil Twilight 4:48 AM CEST 9:07 PM CEST
Nautical Twilight 4:04 AM CEST 9:51 PM CEST
Astronomical Twilight 3:12 AM CEST 10:43 PM CEST
Moon 11:48 PM CEST (6/17) 10:19 AM CEST (6/17)
Length of Visible Light 16h 18m
Length of Day
15h 10m
Waning Gibbous, 76% of the Moon is Illuminated
Jun 17
Waning Gibbous
Jun 19
Last Quarter
Jun 27
New
Jul 5
First Quarter
Jul 12
Full

Hourly Weather History & Observations

Time (CEST) Temp. Dew Point Humidity Pressure Visibility Wind Dir Wind Speed Gust Speed Precip Events Conditions
6:55 AM 64.4 °F 60.8 °F 88% 29.86 in 2.5 mi Calm Calm - N/A   Partly Cloudy
7:55 AM 66.2 °F 60.8 °F 83% 29.86 in 2.5 mi WNW 2.3 mph - N/A   Scattered Clouds
8:00 AM 66 °F 60 °F 76% 29.87 in 2 mi WNW 2.3 mph - -   Mist
8:55 AM 68.0 °F 60.8 °F 78% 29.86 in 3.7 mi Calm Calm - N/A   Scattered Clouds
9:55 AM 69.8 °F 62.6 °F 78% 29.86 in 3.7 mi ESE 4.6 mph - N/A   Scattered Clouds
10:55 AM 69.8 °F 64.4 °F 83% 29.86 in 4.3 mi NE 1.2 mph - N/A   Scattered Clouds
11:00 AM 71 °F 65 °F 75% 29.87 in 4 mi NE 1.2 mph - -   Mist
11:55 AM 71.6 °F 64.4 °F 78% 29.86 in 5.0 mi ENE 5.8 mph - N/A Thunderstorm Thunderstorm
12:55 PM 75.2 °F 68.0 °F 78% 29.86 in 6.2 mi ENE 2.3 mph - N/A   Partly Cloudy
1:55 PM 75.2 °F 68.0 °F 78% 29.86 in 6.2 mi East 8.1 mph - N/A   Partly Cloudy
2:00 PM 75 °F 68 °F 72% 29.86 in 9 mi East 8.1 mph - -   Partly Cloudy
2:55 PM 75.2 °F 68.0 °F 78% 29.86 in 6.2 mi ENE 8.1 mph - N/A   Scattered Clouds
3:55 PM 73.4 °F 69.8 °F 88% 29.83 in 6.2 mi ENE 6.9 mph - N/A   Scattered Clouds
4:55 PM 75.2 °F 68.0 °F 78% 29.83 in 5.0 mi East 6.9 mph - N/A Thunderstorm Thunderstorm
5:00 PM 75 °F 69 °F 75% 29.83 in 5 mi East 6.9 mph - - Thunderstorm Thunderstorm
5:55 PM 73.4 °F 68.0 °F 83% 29.80 in 6.2 mi East 5.8 mph - N/A Thunderstorm Thunderstorm
6:55 PM 71.6 °F 68.0 °F 88% 29.80 in 5.0 mi ENE 8.1 mph - N/A Thunderstorm Thunderstorm
7:55 PM 68.0 °F 64.4 °F 88% 29.83 in 0.9 mi South 9.2 mph 20.7 mph N/A Rain , Thunderstorm Heavy Thunderstorms and Rain
8:00 PM 68 °F 64 °F 83% 29.85 in 1 mi South 9.2 mph - - Rain , Thunderstorm Heavy Thunderstorms and Rain
8:55 PM 64.4 °F 60.8 °F 88% 29.83 in 5.6 mi North 1.2 mph - N/A Thunderstorm Thunderstorm
9:55 PM 64.4 °F 59.0 °F 83% 29.83 in 6.2 mi WSW 2.3 mph - N/A   Partly Cloudy